Regional Weather Roundup
Issued by NWS

Home | Current Version | Previous Version | Graphics & Text | Print | Product List | Glossary On
Versions: 1 2 3 4 5 6 7 8 9 10 11 12 13 14 15 16 17 18 19 20 21 22 23 24 25 26 27 28 29 30 31 32 33 34 35 36 37 38 39 40 41 42 43 44 45 46 47 48 49 50
000
ASUS43 KMKX 171800
RWRWI

WISCONSIN REGIONAL WEATHER ROUNDUP
NATIONAL WEATHER SERVICE MILWAUKEE/SULLIVAN WI
100 PM CDT THU APR 17 2014

NOTE: "FAIR" INDICATES FEW OR NO CLOUDS BELOW 12,000 FEET WITH NO
SIGNIFICANT WEATHER AND/OR OBSTRUCTIONS TO VISIBILITY.

WIZ001-002-006>008-014>016-023>028-171900-
NORTHWEST WISCONSIN

CITY           SKY/WX    TMP DP  RH WIND       PRES   REMARKS
SUPERIOR ARPT  CLOUDY    35  25  67 NW9       30.24S WCI  28
ASHLAND        CLOUDY    34  30  85 W8        30.20R WCI  27
6HR MIN TEMP:  28; 6HR MAX TEMP:  34; 6HR PCP: TRACE;

HAYWARD        CLOUDY    31  28  89 VRB5      30.21R WCI  26
6HR MIN TEMP:  29; 6HR MAX TEMP:  32;

SIREN          CLOUDY    33  28  80 NW9       30.25S WCI  25
RICE LAKE      CLOUDY    33  30  89 NW9G16    30.23R WCI  25
LADYSMITH      CLOUDY    34  32  92 NW12      30.19R WCI  26
EAU CLAIRE     NOT AVBL
MENOMONIE      CLOUDY    35  31  85 NW14      30.23S WCI  26
NEW RICHMOND   CLOUDY    33  32  96 N9        30.25S WCI  25
OSCEOLA        CLOUDY    35  28  74 NW7       30.28F WCI  30
$$

WIZ003>005-009-010-017-018-171900-
NORTH CENTRAL WISCONSIN

CITY           SKY/WX    TMP DP  RH WIND       PRES   REMARKS
WOODRUFF       CLOUDY    37  34  87 W3        30.12R FOG
RHINELANDER    CLOUDY    35  32  88 W7        30.12R FOG     WCI  29
6HR MIN TEMP:  31; 6HR MAX TEMP:  35; 6HR PCP:  0.10;

EAGLE RIVER    CLOUDY    34  32  93 SW5       30.11R WCI  30
LAND O LAKES   CLOUDY    35  32  90 CALM      30.12R
PHILLIPS       CLOUDY    34  33  93 W3        30.13S FOG
TOMAHAWK       CLOUDY    35  32  89 CALM      30.13R FOG
MEDFORD        CLOUDY    35  33  94 W9        30.13F FOG     WCI  27
MERRILL        CLOUDY    38  34  86 CALM      30.12S
$$

WIZ029-030-035-036-043>047-171900-
CENTRAL WISCONSIN

CITY           SKY/WX    TMP DP  RH WIND       PRES   REMARKS
WAUSAU         CLOUDY    41  34  76 W14       30.11R
6HR MIN TEMP:  33; 6HR MAX TEMP:  41; 6HR PCP:  0.06;

MOSINEE        NOT AVBL
MARSHFIELD     CLOUDY    41  35  79 W13       30.15R
6HR MIN TEMP:  34; 6HR MAX TEMP:  44; 6HR PCP: TRACE;

STEVENS POINT  CLOUDY    45  34  65 W6        30.13R
WAUPACA        NOT AVBL
WAUTOMA        NOT AVBL
WISC RAPIDS    CLOUDY    47  33  58 W12       30.16R
6HR MIN TEMP:  37; 6HR MAX TEMP:  51; 6HR PCP:  0.01;

CAMP DOUGLAS   NOT AVBL
$$

WIZ011>013-019>022-031-037>040-048>050-171900-
NORTHEAST WISCONSIN

CITY           SKY/WX    TMP DP  RH WIND       PRES   REMARKS
ANTIGO         CLOUDY    39  32  77 W5        30.11S
STURGEON BAY   CLOUDY    41  34  75 S13       30.14F
6HR MIN TEMP:  34; 6HR MAX TEMP:  41; 6HR PCP:  0.03;

GREEN BAY      PTSUNNY   49  38  65 S8        30.12S
6HR MIN TEMP:  37; 6HR MAX TEMP:  49; 6HR PCP: TRACE;

MANITOWOC      NOT AVBL
APPLETON       PTSUNNY   48  34  57 SW7       30.12R
CLINTONVILLE   PTSUNNY   50  34  53 W9G17     30.11S
OSHKOSH        PTSUNNY   50  39  66 SW9       30.12R
6HR MIN TEMP:  38; 6HR MAX TEMP:  50;

$$

WIZ032>034-041-042-053>061-171900-
SOUTHWEST WISCONSIN

CITY           SKY/WX    TMP DP  RH WIND       PRES   REMARKS
LA CROSSE      CLOUDY    43  32  65 NW15      30.22R
6HR MIN TEMP:  41; 6HR MAX TEMP:  46;

SPARTA         CLOUDY    42  34  74 W9        30.20R
VIROQUA        MOCLDY    44  36  73 W12G18    30.18R
BOSCOBEL       PTSUNNY   50  34  54 NW7       30.20R
6HR MIN TEMP:  38; 6HR MAX TEMP:  51;

PRAIRIE DU CHI CLOUDY    46  34  61 W8        30.21R
PLATTEVILLE    FAIR      47  36  64 W12       30.20S
$$

WIZ056-057-062-063-064-067-068-171900-
SOUTH CENTRAL WISCONSIN

CITY           SKY/WX    TMP DP  RH WIND       PRES   REMARKS
BARABOO/DELLS  CLOUDY    50  36  59 W7        30.14R
LONE ROCK      NOT AVBL
WATERTOWN      CLOUDY    45  37  72 W8        30.16R
MADISON        PTSUNNY   50  36  58 W10G16    30.17R
6HR MIN TEMP:  42; 6HR MAX TEMP:  50;

MIDDLETON      MOCLDY    50  35  56 NW7G17    30.17R
MONROE         PTSUNNY   46  35  64 W12G18    30.18R
JANESVILLE     CLOUDY    50  36  57 W12       30.18S
$$

WIZ051-052-058>065-066-070>072-171900-
SOUTHEAST WISCONSIN

CITY           SKY/WX    TMP DP  RH WIND       PRES   REMARKS
MILWAUKEE      CLOUDY    51  37  58 SW14      30.18R
6HR MIN TEMP:  40; 6HR MAX TEMP:  53;

WAUKESHA       CLOUDY    46  37  71 SW14      30.17R
MILWAUKEE/TIMM CLOUDY    52  36  54 SW14G21     N/A
RACINE         MOSUNNY   54  38  54 W10G21    30.18R
6HR MIN TEMP:  39; 6HR MAX TEMP:  55;

BURLINGTON     CLOUDY    49  37  64 SW14G20   30.17R
KENOSHA        CLOUDY    55  40  56 W13G23    30.17R
6HR MIN TEMP:  41; 6HR MAX TEMP:  55;

FOND DU LAC    CLOUDY    48  37  65 SW10      30.14R
6HR MIN TEMP:  38; 6HR MAX TEMP:  49;

SHEBOYGAN      CLOUDY    50  39  66 SW13      30.14R
6HR MIN TEMP:  37; 6HR MAX TEMP:  50;

WEST BEND      CLOUDY    48  34  57 SW12      30.15R
JUNEAU         CLOUDY    44  36  72 SW12      30.16R
$$

LSZ147-162-171900-
LAKE SUPERIOR

STATION/POSITION TIME  TEMP    WIND        PRES    WAVE
                       AIR SEA DIR/SP/G            HT/PER
                 (UTC) (F)     (DEG/KT/KT) (MB)    (FT/S)
DEVILS ISLAND    1700   33      CALM  /156 1022.8R
PORT WING        1700   31     310/ 12/ 15 1023.4R
SAXON HARBOR     1700           CALM  /  2 1021.7R
$$

LMZ867-665-643>646-171900-
LAKE MICHIGAN

STATION/POSITION TIME  TEMP    WIND        PRES    WAVE
                       AIR SEA DIR/SP/G            HT/PER
                 (UTC) (F)     (DEG/KT/KT) (MB)    (FT/S)
NORTHPORT PIER   1700   35     120/ 10/ 12 1021.3F
SISTER BAY       1723   41     120/ 12/ 15   N/A
KEWAUNEE LAKESHO 1700   38     170/ 16/ 19 1021.3R
SHEBOYGAN LAKESH 1700   38     160/ 14/ 15 1021.3R
PORT WASHINGTON  1700   40     110/  3/  4 1021.3R
MILWAUKEE LAKESH 1700   49     230/ 16/ 20   N/A
KENOSHA   LAKESH 1700   53     230/ 13/ 21   N/A
$$

TC  - TEMPERATURE IN CELSIUS
VSB - VISIBILITY IN STATUTE MILES
WCI - WIND CHILL INDEX
HX  - HEAT INDEX




USA.gov is the U.S. government's official web portal to all federal, state and local government web resources and services.